Wind_Speed
11 11 10 10 9 9 9 7 7 8 9 9 9 9 9 9 9 9 7 6 6 6 6 6 6 6 6 6 6 6 6 6 7 7 7 7 6 7 7 8 8 8 9
11 11 11 10 10 9 9 9 9 9 10 10 10 10 10 10 9 9 8 7 7 7 6 6 7 7 7 7 7 7 7 7 7 7 7 7 7 7 7 8 8 8 9
12 12 12 12 12 11 10 10 10 10 11 12 11 11 11 10 10 10 9 9 8 8 8 7 7 8 8 8 8 7 8 8 8 8 8 8 8 8 7 8 8 9 10
14 14 13 12 12 12 11 12 11 11 12 12 12 11 13 12 11 11 11 11 10 10 10 9 9 9 9 9 9 8 8 9 9 9 9 9 8 9 8 8 9 9 10
16 16 15 14 14 14 13 12 12 12 13 13 13 13 13 13 13 13 12 12 12 12 11 11 11 10 10 11 11 10 10 10 10 9 9 9 9 9 9 9 9 10 10
18 18 17 16 16 15 15 14 14 14 13 13 14 14 14 14 14 14 14 14 14 14 13 13 12 12 12 12 12 11 11 11 11 10 10 9 9 9 10 10 11 10 11
20 20 19 19 17 16 16 15 16 15 15 15 15 14 14 14 14 14 15 15 15 15 15 14 14 14 14 13 13 13 13 12 11 11 11 11 10 10 10 11 12 12 12
21 20 20 20 19 17 17 17 17 16 16 17 18 17 15 15 15 16 17 17 16 16 16 16 16 15 14 14 14 14 14 13 13 13 13 13 12 11 12 12 13 13 13
21 21 21 20 20 19 19 19 19 18 18 18 19 19 18 18 18 19 19 19 19 19 18 18 17 16 16 16 16 16 15 15 15 15 15 15 14 13 13 14 14 14 14
22 22 22 22 22 21 20 21 21 21 20 20 20 20 21 22 21 21 20 20 20 19 19 19 18 18 17 17 17 17 17 17 17 16 16 16 17 16 15 15 16 16 16
23 24 24 24 23 23 22 22 22 21 22 22 22 22 22 22 21 21 22 21 21 20 19 19 20 19 18 18 18 18 19 18 18 18 17 17 17 16 16 17 17 18 18
24 24 25 25 25 25 25 24 23 23 23 23 24 24 24 24 23 23 23 23 22 21 21 21 20 19 19 19 19 19 19 19 19 19 19 19 19 18 18 18 18 19 19
25 26 26 26 26 26 26 27 25 24 24 25 25 25 25 26 25 24 24 23 23 23 23 23 23 21 21 21 21 21 21 21 20 20 20 20 21 20 20 20 20 20 20
25 26 25 26 26 27 27 26 26 26 26 26 26 26 26 25 25 25 25 24 23 24 24 23 23 22 22 22 22 22 22 22 22 21 21 22 22 22 21 22 21 22 22
25 26 25 25 25 26 26 26 26 27 27 27 27 26 26 25 25 25 25 25 25 25 24 24 23 23 23 23 24 24 24 23 23 22 22 23 23 23 22 22 23 23 23
27 28 27 27 27 27 27 27 26 26 26 27 28 27 26 24 24 26 26 26 26 26 25 25 25 24 24 24 26 26 25 25 24 24 23 23 24 24 23 23 23 24 24
27 27 27 28 28 28 28 27 27 27 27 27 27 27 26 25 25 25 26 27 27 27 26 26 26 26 26 26 26 27 25 25 24 24 24 23 24 24 23 23 24 24 25
26 27 27 27 26 27 27 26 26 27 26 26 26 26 26 25 25 25 25 25 26 27 26 26 26 27 26 26 26 26 26 26 26 25 25 24 25 25 24 24 24 24 24
26 26 26 26 26 26 26 26 26 26 26 25 25 26 26 26 25 25 26 25 25 25 26 26 27 27 27 26 27 27 27 27 26 25 26 26 25 26 25 25 24 24 24
27 26 25 25 25 25 25 25 25 25 25 24 24 24 25 25 26 26 26 26 25 24 25 26 27 27 26 27 27 27 27 26 26 26 26 26 26 26 25 25 24 24 24
25 25 24 24 24 25 24 23 23 22 22 22 22 23 24 25 24 25 26 26 25 24 25 25 26 26 26 26 27 27 27 26 26 26 26 25 25 25 24 24 24 24 24
25 24 24 23 24 23 23 23 23 23 22 22 22 23 23 24 24 25 25 25 25 24 25 25 25 25 26 26 26 26 26 26 26 26 26 25 25 25 25 24 24 24 24
25 24 23 23 23 24 24 24 24 25 24 23 23 24 24 24 24 24 24 24 24 25 25 26 25 25 26 26 26 26 26 26 26 26 26 26 26 26 25 25 25 25 25
25 24 24 24 24 25 26 25 25 25 24 24 24 25 25 24 23 23 23 24 24 25 25 25 25 25 26 26 26 25 25 25 25 26 26 26 26 26 25 25 25 25 26
26 25 25 25 26 26 26 26 26 25 25 26 27 26 24 24 24 24 23 24 24 24 24 24 25 25 25 25 25 25 26 26 26 27 28 27 27 27 28 27 26 26 26
27 26 25 26 27 26 25 25 25 26 26 26 25 24 24 24 24 24 23 24 24 23 23 23 24 24 25 25 25 25 26 27 28 28 27 27 27 28 28 28 28 27 27
Wind_Direction
296 298 296 294 293 294 293 293 302 300 297 297 296 291 292 300 307 307 313 306 305 311 317 320 320 322 317 311 299 292 290 290 288 285 283 282 282 287 282 269 265 261 255
288 290 292 293 293 290 289 285 288 293 291 287 285 288 287 294 302 307 307 307 308 305 307 311 309 308 306 300 292 286 284 284 286 285 283 285 287 282 276 269 265 264 263
274 279 285 288 287 286 283 285 282 284 286 284 282 281 284 290 292 296 296 295 297 299 299 304 307 303 298 298 296 289 288 289 291 291 287 287 285 281 277 274 270 267 266
266 269 275 282 280 279 280 281 281 277 280 278 278 278 282 283 284 287 289 287 288 292 294 291 295 294 290 288 291 292 288 288 289 292 290 288 286 279 273 273 274 273 270
267 266 269 276 274 272 273 275 277 279 279 275 275 279 286 281 283 285 285 285 284 287 290 285 284 287 287 287 288 287 287 288 288 286 288 288 287 284 278 275 275 274 273
269 268 267 271 274 271 271 272 272 273 272 272 275 277 279 278 281 283 281 281 279 279 281 282 282 281 284 287 286 283 284 285 284 281 280 280 281 282 279 277 274 274 275
268 268 267 267 269 269 269 273 270 271 273 273 275 277 275 275 277 280 280 279 277 276 278 280 283 283 280 281 281 280 280 280 281 279 277 276 277 277 276 275 274 274 276
265 264 264 263 263 265 266 268 271 272 272 273 274 276 274 273 275 279 280 280 278 276 276 277 279 280 283 281 279 280 277 276 276 277 276 273 272 273 273 274 275 277 277
263 263 264 265 265 265 266 267 270 271 273 273 273 274 271 270 273 276 277 278 277 278 277 279 277 278 281 283 280 279 276 273 274 276 276 272 271 271 271 273 274 276 278
264 265 263 264 266 266 265 264 267 269 270 271 272 270 268 268 269 272 272 274 276 278 278 277 277 276 277 280 282 280 276 273 273 274 275 273 271 271 270 274 274 274 276
267 265 264 264 264 266 266 264 268 269 269 268 271 270 271 270 269 270 272 273 274 275 277 277 275 275 274 276 279 282 279 275 275 273 272 274 271 269 272 275 275 275 275
268 266 264 264 266 269 268 268 270 270 270 269 269 269 271 272 270 269 270 271 271 273 273 275 275 273 273 273 274 276 277 275 275 273 270 270 270 271 272 274 275 275 274
268 268 266 266 269 271 272 270 270 272 273 270 268 269 272 273 272 269 270 270 271 271 274 275 274 272 272 273 274 274 276 276 276 274 270 270 271 271 273 273 275 275 275
268 267 265 266 268 270 271 270 270 272 274 271 269 269 271 272 271 270 269 269 271 273 275 274 273 272 272 272 273 274 275 276 275 274 271 270 271 271 273 274 274 275 275
269 266 266 270 273 274 274 274 273 271 271 271 270 272 273 274 270 269 269 270 270 271 271 272 272 274 273 272 272 273 273 273 273 273 272 271 271 270 273 273 274 275 275
271 270 271 274 275 275 276 276 276 273 271 272 270 270 272 272 271 270 269 270 270 269 269 270 271 273 273 272 271 270 270 271 272 272 274 273 274 272 272 273 274 275 275
270 269 272 274 274 275 276 275 274 273 272 272 270 268 273 273 271 269 268 269 269 267 268 269 270 272 274 273 273 270 269 271 272 273 274 273 274 273 274 274 274 275 275
267 271 273 274 273 274 275 273 272 269 269 271 269 268 270 271 271 270 271 271 271 270 268 268 270 273 274 274 273 271 272 273 273 272 273 274 276 275 275 275 275 275 276
269 271 273 274 274 273 272 273 272 270 271 272 270 269 268 267 268 268 270 270 273 272 269 268 268 270 273 274 274 272 272 273 273 273 273 274 275 274 274 274 274 274 275
270 271 272 274 272 270 270 272 273 271 272 273 272 270 269 269 269 269 268 269 272 272 269 267 267 269 271 272 273 273 273 272 272 272 273 273 273 273 273 272 272 273 275
269 270 271 273 270 268 268 271 272 271 271 270 271 272 271 273 273 271 270 270 271 270 267 267 267 268 269 270 271 272 273 271 270 271 272 273 271 273 273 270 272 274 275
268 269 270 271 269 268 269 270 270 270 270 270 271 272 273 274 274 275 275 273 271 269 268 267 268 268 268 268 268 269 270 270 270 271 271 271 271 273 273 272 273 274 276
267 269 269 268 267 267 269 269 270 271 271 271 271 272 273 274 275 277 278 276 273 273 271 268 267 267 268 267 267 267 267 269 270 270 269 270 271 271 271 271 273 275 277
264 266 267 267 268 268 268 269 270 269 269 269 271 272 272 274 275 276 276 277 277 275 271 269 266 267 267 266 266 266 267 267 268 269 269 269 269 269 268 270 272 274 276
261 264 265 265 267 268 267 268 268 268 267 269 273 272 270 271 273 275 275 276 278 277 273 270 268 266 266 266 266 266 267 268 268 269 268 266 266 266 267 268 270 272 274
259 261 263 263 263 264 265 265 265 267 267 269 268 268 269 271 271 272 273 275 277 278 276 276 273 269 266 265 266 267 269 269 270 269 267 266 266 267 267 268 270 272 274
Height
5873 5872 5872 5872 5872 5871 5871 5871 5871 5870 5870 5870 5869 5869 5868 5867 5867 5866 5865 5865 5865 5864 5864 5863 5863 5862 5862 5861 5861 5860 5860 5860 5860 5860 5859 5859 5858 5857 5857 5857 5857 5857 5857
5871 5870 5870 5870 5869 5869 5869 5869 5868 5868 5868 5868 5867 5867 5867 5866 5865 5865 5864 5864 5863 5863 5862 5862 5861 5861 5860 5859 5859 5859 5858 5858 5858 5858 5857 5857 5857 5856 5855 5855 5855 5855 5855
5868 5868 5867 5867 5866 5866 5866 5866 5866 5866 5865 5865 5865 5865 5864 5864 5863 5863 5863 5862 5862 5861 5860 5860 5860 5859 5858 5858 5857 5857 5856 5856 5856 5855 5855 5855 5854 5854 5853 5853 5852 5852 5852
5864 5864 5864 5863 5863 5863 5863 5863 5863 5862 5862 5862 5862 5861 5860 5860 5860 5860 5860 5860 5859 5859 5859 5858 5858 5857 5856 5855 5855 5854 5854 5853 5853 5852 5852 5852 5851 5851 5851 5850 5850 5849 5849
5860 5860 5860 5860 5860 5860 5860 5859 5859 5859 5859 5858 5858 5858 5857 5857 5857 5857 5858 5857 5857 5857 5856 5856 5855 5854 5854 5853 5852 5852 5851 5850 5850 5850 5849 5849 5848 5848 5848 5848 5847 5847 5847
5856 5856 5856 5856 5856 5856 5856 5856 5856 5856 5855 5855 5855 5855 5855 5855 5855 5855 5855 5854 5854 5854 5853 5853 5852 5851 5851 5850 5849 5849 5848 5847 5847 5847 5846 5846 5845 5845 5844 5844 5844 5844 5844
5851 5851 5851 5851 5852 5852 5852 5851 5851 5851 5851 5851 5851 5851 5851 5851 5852 5852 5851 5851 5850 5850 5850 5849 5849 5848 5847 5846 5846 5845 5845 5844 5844 5844 5843 5843 5842 5842 5841 5841 5841 5840 5840
5846 5846 5847 5847 5847 5847 5847 5847 5847 5847 5847 5847 5847 5847 5847 5847 5848 5848 5848 5847 5847 5846 5846 5845 5845 5844 5843 5842 5842 5841 5841 5840 5840 5840 5840 5839 5839 5839 5838 5838 5837 5837 5837
5841 5841 5841 5842 5842 5842 5842 5842 5842 5842 5842 5842 5842 5842 5843 5843 5843 5843 5844 5843 5843 5842 5841 5841 5840 5840 5839 5838 5838 5837 5837 5837 5836 5836 5836 5835 5835 5835 5834 5834 5834 5834 5833
5835 5835 5835 5836 5836 5837 5837 5837 5837 5836 5836 5837 5837 5837 5837 5837 5837 5838 5838 5838 5838 5837 5837 5836 5836 5835 5834 5834 5833 5833 5832 5832 5832 5832 5831 5831 5831 5830 5830 5830 5829 5829 5829
5828 5829 5830 5830 5831 5831 5831 5831 5831 5830 5831 5831 5831 5832 5831 5831 5831 5832 5833 5833 5833 5832 5832 5831 5830 5830 5829 5829 5829 5828 5828 5827 5827 5827 5826 5826 5825 5825 5825 5825 5824 5824 5824
5822 5822 5823 5824 5825 5824 5824 5824 5825 5825 5825 5825 5825 5825 5825 5826 5826 5826 5827 5827 5827 5827 5826 5826 5825 5825 5824 5824 5824 5823 5822 5822 5822 5821 5821 5821 5820 5820 5820 5819 5819 5819 5818
5815 5815 5816 5817 5818 5818 5818 5818 5818 5818 5817 5818 5818 5819 5819 5819 5819 5820 5820 5820 5820 5820 5820 5819 5819 5818 5818 5818 5818 5817 5817 5817 5816 5815 5815 5815 5815 5814 5814 5813 5813 5813 5812
5808 5808 5809 5810 5810 5810 5810 5811 5811 5811 5810 5810 5811 5811 5812 5812 5812 5813 5813 5813 5813 5813 5813 5813 5812 5812 5812 5812 5811 5811 5811 5811 5810 5810 5809 5809 5808 5808 5807 5807 5807 5806 5806
5801 5802 5802 5803 5803 5803 5803 5803 5803 5803 5802 5802 5803 5803 5804 5804 5804 5805 5805 5805 5806 5806 5806 5806 5806 5805 5805 5805 5805 5804 5804 5804 5803 5803 5802 5801 5801 5801 5800 5800 5800 5800 5799
5794 5794 5795 5795 5795 5795 5795 5795 5795 5795 5795 5795 5795 5795 5796 5796 5797 5797 5797 5797 5798 5798 5798 5798 5798 5798 5798 5798 5797 5797 5797 5797 5796 5796 5795 5794 5794 5794 5793 5793 5792 5792 5792
5786 5787 5787 5787 5787 5787 5787 5787 5787 5787 5787 5787 5787 5788 5788 5789 5788 5788 5789 5789 5789 5790 5790 5791 5791 5791 5791 5790 5790 5789 5789 5789 5789 5789 5788 5788 5787 5787 5786 5785 5785 5784 5784
5779 5779 5779 5779 5779 5779 5778 5778 5779 5779 5779 5779 5779 5780 5780 5781 5780 5780 5781 5781 5781 5781 5781 5782 5783 5783 5783 5782 5782 5782 5781 5781 5782 5782 5781 5781 5780 5779 5779 5778 5777 5777 5776
5771 5771 5771 5771 5771 5771 5771 5771 5771 5771 5771 5771 5771 5772 5772 5772 5772 5773 5773 5772 5772 5772 5772 5773 5774 5774 5775 5774 5774 5774 5774 5774 5773 5773 5773 5773 5772 5772 5771 5771 5770 5770 5769
5763 5762 5762 5763 5763 5763 5763 5763 5763 5763 5763 5763 5764 5764 5764 5764 5764 5764 5764 5764 5763 5763 5764 5764 5765 5765 5766 5766 5766 5765 5765 5766 5766 5765 5765 5765 5764 5764 5764 5764 5763 5763 5762
5755 5755 5755 5754 5754 5754 5755 5755 5756 5756 5756 5756 5757 5757 5757 5757 5756 5756 5756 5756 5755 5755 5755 5756 5756 5757 5757 5757 5757 5758 5757 5758 5758 5758 5757 5757 5756 5756 5756 5756 5756 5756 5755
5747 5747 5747 5746 5746 5746 5747 5748 5749 5749 5749 5749 5749 5749 5749 5748 5748 5748 5748 5748 5748 5747 5747 5748 5748 5748 5749 5749 5749 5749 5749 5749 5750 5750 5749 5749 5748 5748 5749 5749 5749 5748 5748
5739 5739 5739 5739 5738 5739 5739 5740 5740 5741 5741 5741 5741 5741 5741 5741 5741 5741 5741 5741 5740 5740 5740 5740 5740 5740 5740 5741 5741 5741 5741 5741 5741 5741 5741 5741 5741 5741 5741 5741 5741 5741 5740
5731 5732 5731 5732 5732 5731 5732 5732 5732 5733 5733 5733 5734 5734 5734 5734 5734 5734 5734 5733 5733 5732 5732 5732 5732 5732 5732 5733 5733 5733 5733 5733 5733 5733 5733 5733 5733 5733 5733 5733 5733 5733 5732
5723 5724 5724 5724 5724 5724 5724 5724 5725 5725 5725 5726 5726 5726 5726 5726 5727 5726 5726 5726 5726 5725 5724 5724 5724 5724 5724 5725 5725 5725 5725 5725 5725 5725 5725 5725 5725 5725 5725 5725 5725 5725 5725
5715 5715 5715 5716 5716 5716 5716 5716 5716 5717 5718 5718 5717 5718 5718 5718 5718 5719 5719 5718 5718 5717 5717 5716 5716 5716 5716 5716 5716 5717 5717 5716 5717 5716 5716 5716 5716 5717 5717 5717 5717 5717 5717